Time,TemperatureF,DewpointF,PressureIn,WindDirection,WindDirectionDegrees,WindSpeedMPH,WindSpeedGustMPH,Humidity,HourlyPrecipIn,Conditions,Clouds,dailyrainin,SoftwareType,DateUTC
2013-03-14 00:02:00,59.9,48.9,30.16,North,355,9.0,13.0,67,0.00,,,0.00,Wunderground v.1.15,2013-03-14 04:02:00,
2013-03-14 00:07:00,59.8,48.8,30.16,NNW,348,8.0,13.0,67,0.00,,,0.00,Wunderground v.1.15,2013-03-14 04:07:00,
2013-03-14 00:12:00,59.7,48.7,30.16,North,360,7.0,7.0,67,0.00,,,0.00,Wunderground v.1.15,2013-03-14 04:12:00,
2013-03-14 00:17:00,59.6,48.2,30.16,North,350,7.0,10.0,66,0.00,,,0.00,Wunderground v.1.15,2013-03-14 04:17:00,
2013-03-14 00:27:00,59.5,48.1,30.16,North,355,6.0,10.0,66,0.00,,,0.00,Wunderground v.1.15,2013-03-14 04:27:00,
2013-03-14 00:37:00,59.2,48.2,30.16,North,10,5.0,9.0,67,0.00,,,0.00,Wunderground v.1.15,2013-03-14 04:37:00,
2013-03-14 00:42:00,59.2,48.2,30.16,North,360,6.0,6.0,67,0.00,,,0.00,Wunderground v.1.15,2013-03-14 04:42:00,
2013-03-14 00:52:00,59.0,48.1,30.16,North,360,5.0,6.0,67,0.00,,,0.00,Wunderground v.1.15,2013-03-14 04:52:00,
2013-03-14 01:02:00,59.0,47.7,30.16,NNW,338,4.0,17.0,66,0.00,,,0.00,Wunderground v.1.15,2013-03-14 05:02:00,
2013-03-14 01:07:00,58.9,47.6,30.16,North,5,4.0,17.0,66,0.00,,,0.00,Wunderground v.1.15,2013-03-14 05:07:00,
2013-03-14 01:17:00,58.7,47.4,30.15,NNW,346,4.0,6.0,66,0.00,,,0.00,Wunderground v.1.15,2013-03-14 05:17:00,
2013-03-14 01:27:00,58.8,47.5,30.15,NNW,346,5.0,17.0,66,0.00,,,0.00,Wunderground v.1.15,2013-03-14 05:27:00,
2013-03-14 01:37:00,58.7,47.4,30.16,North,351,5.0,17.0,66,0.00,,,0.00,Wunderground v.1.15,2013-03-14 05:37:00,
2013-03-14 01:42:00,58.6,48.1,30.16,NNW,348,5.0,5.0,68,0.00,,,0.00,Wunderground v.1.15,2013-03-14 05:42:00,
2013-03-14 01:52:00,58.4,47.9,30.15,North,360,4.0,4.0,68,0.00,,,0.00,Wunderground v.1.15,2013-03-14 05:52:00,
2013-03-14 02:02:00,58.1,48.0,30.15,North,9,2.0,2.0,69,0.00,,,0.00,Wunderground v.1.15,2013-03-14 06:02:00,
2013-03-14 02:12:00,57.5,48.2,30.15,North,5,0.0,3.0,71,0.00,,,0.00,Wunderground v.1.15,2013-03-14 06:12:00,
2013-03-14 02:17:00,57.4,48.4,30.15,North,5,1.0,3.0,72,0.00,,,0.00,Wunderground v.1.15,2013-03-14 06:17:00,
2013-03-14 02:27:00,57.3,48.3,30.15,North,360,1.0,4.0,72,0.00,,,0.00,Wunderground v.1.15,2013-03-14 06:27:00,
2013-03-14 02:32:00,57.4,48.8,30.15,North,355,2.0,5.0,73,0.00,,,0.00,Wunderground v.1.15,2013-03-14 06:32:00,
2013-03-14 02:42:00,57.2,48.6,30.15,North,360,1.0,1.0,73,0.00,,,0.00,Wunderground v.1.15,2013-03-14 06:42:00,
2013-03-14 02:52:00,57.0,48.8,30.15,North,360,0.0,0.0,74,0.00,,,0.00,Wunderground v.1.15,2013-03-14 06:52:00,
2013-03-14 03:02:00,56.7,48.9,30.14,North,355,0.0,15.0,75,0.00,,,0.00,Wunderground v.1.15,2013-03-14 07:02:00,
2013-03-14 03:07:00,56.5,48.7,30.14,North,355,0.0,15.0,75,0.00,,,0.00,Wunderground v.1.15,2013-03-14 07:07:00,
2013-03-14 03:17:00,56.0,48.9,30.14,North,360,0.0,15.0,77,0.00,,,0.00,Wunderground v.1.15,2013-03-14 07:17:00,
2013-03-14 03:27:00,55.6,48.8,30.14,North,351,0.0,15.0,78,0.00,,,0.00,Wunderground v.1.15,2013-03-14 07:27:00,
2013-03-14 03:37:00,55.1,48.7,30.14,North,351,0.0,15.0,79,0.00,,,0.00,Wunderground v.1.15,2013-03-14 07:37:00,
2013-03-14 03:47:00,54.7,49.0,30.13,North,351,0.0,15.0,81,0.00,,,0.00,Wunderground v.1.15,2013-03-14 07:47:00,
2013-03-14 03:57:00,54.7,49.0,30.13,North,360,0.0,15.0,81,0.00,,,0.00,Wunderground v.1.15,2013-03-14 07:57:00,
2013-03-14 04:02:00,54.7,49.0,30.13,North,355,0.0,15.0,81,0.00,,,0.00,Wunderground v.1.15,2013-03-14 08:02:00,
2013-03-14 04:07:00,54.8,49.4,30.13,North,360,0.0,15.0,82,0.00,,,0.00,Wunderground v.1.15,2013-03-14 08:07:00,
2013-03-14 04:17:00,55.1,49.4,30.13,North,355,2.0,3.0,81,0.00,,,0.00,Wunderground v.1.15,2013-03-14 08:17:00,
2013-03-14 04:27:00,55.2,49.5,30.13,North,360,3.0,4.0,81,0.00,,,0.00,Wunderground v.1.15,2013-03-14 08:27:00,
2013-03-14 04:37:00,55.5,49.8,30.13,North,355,4.0,4.0,81,0.00,,,0.00,Wunderground v.1.15,2013-03-14 08:37:00,
2013-03-14 04:47:00,55.8,50.1,30.13,NNE,12,4.0,5.0,81,0.00,,,0.00,Wunderground v.1.15,2013-03-14 08:47:00,
2013-03-14 04:57:00,55.8,49.7,30.13,North,360,6.0,10.0,80,0.00,,,0.00,Wunderground v.1.15,2013-03-14 08:57:00,
2013-03-14 05:02:00,55.8,49.7,30.13,North,360,5.0,5.0,80,0.00,,,0.00,Wunderground v.1.15,2013-03-14 09:02:00,
2013-03-14 05:12:00,55.8,50.1,30.13,North,355,6.0,6.0,81,0.00,,,0.00,Wunderground v.1.15,2013-03-14 09:12:00,
2013-03-14 05:22:00,55.8,50.1,30.13,North,355,5.0,5.0,81,0.00,,,0.00,Wunderground v.1.15,2013-03-14 09:22:00,
2013-03-14 05:32:00,55.8,50.1,30.14,NNW,345,6.0,8.0,81,0.00,,,0.00,Wunderground v.1.15,2013-03-14 09:32:00,
2013-03-14 05:42:00,55.6,49.9,30.14,North,5,7.0,9.0,81,0.00,,,0.00,Wunderground v.1.15,2013-03-14 09:42:00,
2013-03-14 05:52:00,55.6,49.5,30.14,North,5,7.0,8.0,80,0.00,,,0.00,Wunderground v.1.15,2013-03-14 09:52:00,
2013-03-14 06:02:00,55.5,47.7,30.15,North,349,7.0,7.0,75,0.00,,,0.00,Wunderground v.1.15,2013-03-14 10:02:00,
2013-03-14 06:07:00,55.3,47.2,30.15,NNW,331,6.0,13.0,74,0.00,,,0.00,Wunderground v.1.15,2013-03-14 10:07:00,
2013-03-14 06:12:00,55.1,46.6,30.15,North,355,6.0,6.0,73,0.00,,,0.00,Wunderground v.1.15,2013-03-14 10:12:00,
2013-03-14 06:22:00,54.9,45.7,30.15,North,355,7.0,10.0,71,0.00,,,0.00,Wunderground v.1.15,2013-03-14 10:22:00,
2013-03-14 06:27:00,54.7,45.5,30.15,North,9,7.0,10.0,71,0.00,,,0.00,Wunderground v.1.15,2013-03-14 10:27:00,
2013-03-14 06:37:00,54.3,44.7,30.16,North,360,7.0,7.0,70,0.00,,,0.00,Wunderground v.1.15,2013-03-14 10:37:00,
2013-03-14 06:47:00,53.9,44.0,30.17,North,10,6.0,7.0,69,0.00,,,0.00,Wunderground v.1.15,2013-03-14 10:47:00,
2013-03-14 06:57:00,53.6,43.3,30.17,North,5,6.0,7.0,68,0.00,,,0.00,Wunderground v.1.15,2013-03-14 10:57:00,
2013-03-14 07:07:00,53.4,42.3,30.17,North,355,6.0,16.0,66,0.00,,,0.00,Wunderground v.1.15,2013-03-14 11:07:00,
2013-03-14 07:12:00,53.4,41.9,30.17,North,355,6.0,16.0,65,0.00,,,0.00,Wunderground v.1.15,2013-03-14 11:12:00,
2013-03-14 07:22:00,53.3,40.6,30.18,NNW,346,6.0,16.0,62,0.00,,,0.00,Wunderground v.1.15,2013-03-14 11:22:00,
2013-03-14 07:32:00,53.2,40.1,30.19,North,360,5.0,5.0,61,0.00,,,0.00,Wunderground v.1.15,2013-03-14 11:32:00,
2013-03-14 07:42:00,53.1,40.0,30.19,NNW,346,5.0,16.0,61,0.00,,,0.00,Wunderground v.1.15,2013-03-14 11:42:00,
2013-03-14 07:47:00,53.1,39.6,30.19,NNE,26,6.0,16.0,60,0.00,,,0.00,Wunderground v.1.15,2013-03-14 11:47:00,
2013-03-14 07:57:00,53.0,38.6,30.19,North,5,6.0,10.0,58,0.00,,,0.00,Wunderground v.1.15,2013-03-14 11:57:00,
2013-03-14 08:02:00,53.0,38.6,30.19,NNE,19,6.0,16.0,58,0.00,,,0.00,Wunderground v.1.15,2013-03-14 12:02:00,
2013-03-14 08:12:00,53.2,38.8,30.19,North,9,6.0,6.0,58,0.00,,,0.00,Wunderground v.1.15,2013-03-14 12:12:00,
2013-03-14 08:17:00,53.2,38.8,30.20,North,11,5.0,6.0,58,0.00,,,0.00,Wunderground v.1.15,2013-03-14 12:17:00,
2013-03-14 08:27:00,53.5,38.2,30.20,NNE,26,7.0,11.0,56,0.00,,,0.00,Wunderground v.1.15,2013-03-14 12:27:00,
2013-03-14 08:37:00,53.8,37.5,30.20,North,360,8.0,10.0,54,0.00,,,0.00,Wunderground v.1.15,2013-03-14 12:37:00,
2013-03-14 08:47:00,54.2,36.9,30.21,North,9,7.0,9.0,52,0.00,,,0.00,Wunderground v.1.15,2013-03-14 12:47:00,
2013-03-14 08:52:00,54.4,36.6,30.21,North,9,7.0,7.0,51,0.00,,,0.00,Wunderground v.1.15,2013-03-14 12:52:00,
2013-03-14 09:02:00,54.8,36.0,30.21,NE,36,9.0,9.0,49,0.00,,,0.00,Wunderground v.1.15,2013-03-14 13:02:00,
2013-03-14 09:12:00,55.4,34.9,30.21,NE,50,8.0,8.0,46,0.00,,,0.00,Wunderground v.1.15,2013-03-14 13:12:00,
2013-03-14 09:22:00,54.9,33.9,30.21,NNE,28,8.0,8.0,45,0.00,,,0.00,Wunderground v.1.15,2013-03-14 13:22:00,
2013-03-14 09:32:00,55.4,34.9,30.22,North,5,9.0,9.0,46,0.00,,,0.00,Wunderground v.1.15,2013-03-14 13:32:00,
2013-03-14 09:42:00,56.1,34.5,30.22,NNE,28,8.0,8.0,44,0.00,,,0.00,Wunderground v.1.15,2013-03-14 13:42:00,
2013-03-14 09:52:00,56.7,35.0,30.22,North,9,7.0,16.0,44,0.00,,,0.00,Wunderground v.1.15,2013-03-14 13:52:00,
2013-03-14 09:57:00,56.7,34.4,30.22,NE,53,7.0,16.0,43,0.00,,,0.00,Wunderground v.1.15,2013-03-14 13:57:00,
2013-03-14 10:07:00,57.3,35.6,30.23,NE,46,7.0,8.0,44,0.00,,,0.00,Wunderground v.1.15,2013-03-14 14:07:00,
2013-03-14 10:17:00,58.3,34.7,30.23,NE,35,5.0,7.0,41,0.00,,,0.00,Wunderground v.1.15,2013-03-14 14:17:00,
2013-03-14 10:27:00,58.4,33.5,30.23,NE,36,7.0,8.0,39,0.00,,,0.00,Wunderground v.1.15,2013-03-14 14:27:00,
2013-03-14 10:37:00,59.1,36.0,30.23,North,355,6.0,8.0,42,0.00,,,0.00,Wunderground v.1.15,2013-03-14 14:37:00,
2013-03-14 10:42:00,59.5,35.8,30.23,NE,53,6.0,7.0,41,0.00,,,0.00,Wunderground v.1.15,2013-03-14 14:42:00,
2013-03-14 10:52:00,59.6,33.3,30.22,NNE,29,7.0,7.0,37,0.00,,,0.00,Wunderground v.1.15,2013-03-14 14:52:00,
2013-03-14 11:02:00,59.9,32.2,30.23,NNE,26,8.0,8.0,35,0.00,,,0.00,Wunderground v.1.15,2013-03-14 15:02:00,
2013-03-14 11:12:00,60.4,34.0,30.23,NE,45,7.0,19.0,37,0.00,,,0.00,Wunderground v.1.15,2013-03-14 15:12:00,
2013-03-14 11:22:00,60.9,36.4,30.23,NNE,17,6.0,19.0,40,0.00,,,0.00,Wunderground v.1.15,2013-03-14 15:22:00,
2013-03-14 11:27:00,61.0,34.5,30.23,NNE,17,7.0,19.0,37,0.00,,,0.00,Wunderground v.1.15,2013-03-14 15:27:00,
2013-03-14 11:37:00,61.4,35.5,30.23,ENE,59,6.0,19.0,38,0.00,,,0.00,Wunderground v.1.15,2013-03-14 15:37:00,
2013-03-14 11:47:00,61.8,35.9,30.23,ENE,57,6.0,19.0,38,0.00,,,0.00,Wunderground v.1.15,2013-03-14 15:47:00,
2013-03-14 11:57:00,61.7,34.5,30.23,NE,45,6.0,19.0,36,0.00,,,0.00,Wunderground v.1.15,2013-03-14 15:57:00,
2013-03-14 12:02:00,62.2,34.9,30.23,NE,41,6.0,6.0,36,0.00,,,0.00,Wunderground v.1.15,2013-03-14 16:02:00,
2013-03-14 12:12:00,62.6,35.3,30.23,NE,41,6.0,6.0,36,0.00,,,0.00,Wunderground v.1.15,2013-03-14 16:12:00,
2013-03-14 12:17:00,62.5,34.5,30.23,ENE,60,7.0,7.0,35,0.00,,,0.00,Wunderground v.1.15,2013-03-14 16:17:00,
2013-03-14 12:27:00,63.0,35.6,30.23,ENE,74,5.0,7.0,36,0.00,,,0.00,Wunderground v.1.15,2013-03-14 16:27:00,
2013-03-14 12:37:00,64.1,35.1,30.22,NE,53,5.0,6.0,34,0.00,,,0.00,Wunderground v.1.15,2013-03-14 16:37:00,
2013-03-14 12:42:00,64.2,34.5,30.22,East,82,4.0,4.0,33,0.00,,,0.00,Wunderground v.1.15,2013-03-14 16:42:00,
2013-03-14 12:47:00,64.7,34.1,30.22,NE,55,3.0,8.0,32,0.00,,,0.00,Wunderground v.1.15,2013-03-14 16:47:00,
2013-03-14 12:57:00,64.8,35.0,30.22,ENE,59,5.0,8.0,33,0.00,,,0.00,Wunderground v.1.15,2013-03-14 16:57:00,
2013-03-14 13:07:00,65.3,36.2,30.21,ENE,59,4.0,17.0,34,0.00,,,0.00,Wunderground v.1.15,2013-03-14 17:07:00,
2013-03-14 13:17:00,65.3,33.9,30.20,East,82,5.0,17.0,31,0.00,,,0.00,Wunderground v.1.15,2013-03-14 17:17:00,
2013-03-14 13:22:00,65.5,35.6,30.20,NE,53,4.0,4.0,33,0.00,,,0.00,Wunderground v.1.15,2013-03-14 17:22:00,
2013-03-14 13:27:00,66.4,34.0,30.20,NNE,23,2.0,17.0,30,0.00,,,0.00,Wunderground v.1.15,2013-03-14 17:27:00,
2013-03-14 13:37:00,66.4,32.3,30.20,ENE,59,4.0,17.0,28,0.00,,,0.00,Wunderground v.1.15,2013-03-14 17:37:00,
2013-03-14 13:42:00,66.4,33.2,30.20,ENE,61,5.0,5.0,29,0.00,,,0.00,Wunderground v.1.15,2013-03-14 17:42:00,
2013-03-14 13:52:00,66.8,32.6,30.19,NE,36,3.0,17.0,28,0.00,,,0.00,Wunderground v.1.15,2013-03-14 17:52:00,
2013-03-14 14:02:00,67.5,32.3,30.18,NE,51,4.0,17.0,27,0.00,,,0.00,Wunderground v.1.15,2013-03-14 18:02:00,
2013-03-14 14:12:00,67.8,32.6,30.18,ENE,58,3.0,3.0,27,0.00,,,0.00,Wunderground v.1.15,2013-03-14 18:12:00,
2013-03-14 14:22:00,68.8,33.4,30.17,North,9,2.0,2.0,27,0.00,,,0.00,Wunderground v.1.15,2013-03-14 18:22:00,
2013-03-14 14:32:00,69.5,33.1,30.17,NE,51,1.0,3.0,26,0.00,,,0.00,Wunderground v.1.15,2013-03-14 18:32:00,
2013-03-14 14:42:00,68.9,31.6,30.17,ENE,63,3.0,8.0,25,0.00,,,0.00,Wunderground v.1.15,2013-03-14 18:42:00,
2013-03-14 14:47:00,69.4,33.0,30.16,ENE,60,4.0,8.0,26,0.00,,,0.00,Wunderground v.1.15,2013-03-14 18:47:00,
2013-03-14 14:57:00,69.7,33.3,30.16,ENE,63,3.0,3.0,26,0.00,,,0.00,Wunderground v.1.15,2013-03-14 18:57:00,
2013-03-14 15:07:00,70.5,31.9,30.15,NNE,18,4.0,4.0,24,0.00,,,0.00,Wunderground v.1.15,2013-03-14 19:07:00,
2013-03-14 15:17:00,70.7,34.1,30.15,NNW,329,4.0,5.0,26,0.00,,,0.00,Wunderground v.1.15,2013-03-14 19:17:00,
2013-03-14 15:22:00,70.5,36.7,30.15,North,349,5.0,5.0,29,0.00,,,0.00,Wunderground v.1.15,2013-03-14 19:22:00,
2013-03-14 15:27:00,70.5,35.8,30.15,NW,318,4.0,8.0,28,0.00,,,0.00,Wunderground v.1.15,2013-03-14 19:27:00,
2013-03-14 15:37:00,71.0,37.1,30.14,North,360,4.0,8.0,29,0.00,,,0.00,Wunderground v.1.15,2013-03-14 19:37:00,
2013-03-14 15:47:00,70.6,34.0,30.14,WNW,294,6.0,15.0,26,0.00,,,0.00,Wunderground v.1.15,2013-03-14 19:47:00,
2013-03-14 15:57:00,71.1,35.4,30.14,West,275,5.0,15.0,27,0.00,,,0.00,Wunderground v.1.15,2013-03-14 19:57:00,
2013-03-14 16:02:00,71.3,30.5,30.13,North,9,4.0,15.0,22,0.00,,,0.00,Wunderground v.1.15,2013-03-14 20:02:00,
2013-03-14 16:12:00,71.1,32.5,30.13,WNW,302,2.0,2.0,24,0.00,,,0.00,Wunderground v.1.15,2013-03-14 20:12:00,
2013-03-14 16:17:00,71.0,35.3,30.13,NNW,342,2.0,9.0,27,0.00,,,0.00,Wunderground v.1.15,2013-03-14 20:17:00,
2013-03-14 16:27:00,71.3,35.6,30.13,NNW,337,5.0,5.0,27,0.00,,,0.00,Wunderground v.1.15,2013-03-14 20:27:00,
2013-03-14 16:37:00,70.9,37.9,30.13,WNW,282,6.0,6.0,30,0.00,,,0.00,Wunderground v.1.15,2013-03-14 20:37:00,
2013-03-14 16:47:00,69.6,43.5,30.13,NW,313,7.0,7.0,39,0.00,,,0.00,Wunderground v.1.15,2013-03-14 20:47:00,
2013-03-14 16:57:00,68.7,42.7,30.13,NNW,331,9.0,9.0,39,0.00,,,0.00,Wunderground v.1.15,2013-03-14 20:57:00,
2013-03-14 17:07:00,68.3,43.0,30.13,North,355,8.0,11.0,40,0.00,,,0.00,Wunderground v.1.15,2013-03-14 21:07:00,
2013-03-14 17:17:00,67.8,43.2,30.13,NW,321,7.0,11.0,41,0.00,,,0.00,Wunderground v.1.15,2013-03-14 21:17:00,
2013-03-14 17:27:00,67.3,43.4,30.13,NNW,330,7.0,11.0,42,0.00,,,0.00,Wunderground v.1.15,2013-03-14 21:27:00,
2013-03-14 17:32:00,67.2,43.9,30.13,WNW,293,7.0,11.0,43,0.00,,,0.00,Wunderground v.1.15,2013-03-14 21:32:00,
2013-03-14 17:37:00,66.9,45.4,30.13,NNW,329,6.0,11.0,46,0.00,,,0.00,Wunderground v.1.15,2013-03-14 21:37:00,
2013-03-14 17:47:00,66.3,46.0,30.13,NW,310,6.0,11.0,48,0.00,,,0.00,Wunderground v.1.15,2013-03-14 21:47:00,
2013-03-14 17:57:00,65.9,46.7,30.13,NW,316,6.0,11.0,50,0.00,,,0.00,Wunderground v.1.15,2013-03-14 21:57:00,
2013-03-14 18:07:00,65.5,47.4,30.13,NW,319,6.0,11.0,52,0.00,,,0.00,Wunderground v.1.15,2013-03-14 22:07:00,
2013-03-14 18:17:00,65.2,47.6,30.13,NW,313,5.0,8.0,53,0.00,,,0.00,Wunderground v.1.15,2013-03-14 22:17:00,
2013-03-14 18:22:00,65.2,47.6,30.13,NW,317,5.0,5.0,53,0.00,,,0.00,Wunderground v.1.15,2013-03-14 22:22:00,
2013-03-14 18:32:00,65.3,47.2,30.14,NW,321,4.0,4.0,52,0.00,,,0.00,Wunderground v.1.15,2013-03-14 22:32:00,
2013-03-14 18:37:00,65.0,47.9,30.14,NW,321,4.0,4.0,54,0.00,,,0.00,Wunderground v.1.15,2013-03-14 22:37:00,
2013-03-14 18:47:00,64.6,49.5,30.14,NNW,329,5.0,7.0,58,0.00,,,0.00,Wunderground v.1.15,2013-03-14 22:47:00,
2013-03-14 18:57:00,64.2,49.1,30.14,NW,311,3.0,4.0,58,0.00,,,0.00,Wunderground v.1.15,2013-03-14 22:57:00,
2013-03-14 19:07:00,63.7,49.1,30.15,NW,320,3.0,15.0,59,0.00,,,0.00,Wunderground v.1.15,2013-03-14 23:07:00,
2013-03-14 19:12:00,63.4,49.3,30.15,NW,323,3.0,3.0,60,0.00,,,0.00,Wunderground v.1.15,2013-03-14 23:12:00,
2013-03-14 19:22:00,62.8,49.1,30.15,NW,319,1.0,1.0,61,0.00,,,0.00,Wunderground v.1.15,2013-03-14 23:22:00,
2013-03-14 19:37:00,61.9,49.6,30.15,NW,316,1.0,15.0,64,0.00,,,0.00,Wunderground v.1.15,2013-03-14 23:37:00,
2013-03-14 19:47:00,61.4,49.9,30.15,NW,313,1.0,15.0,66,0.00,,,0.00,Wunderground v.1.15,2013-03-14 23:47:00,
2013-03-14 19:57:00,60.9,49.5,30.15,NNW,342,1.0,15.0,66,0.00,,,0.00,Wunderground v.1.15,2013-03-14 23:57:00,
2013-03-14 20:07:00,60.4,49.8,30.15,NW,316,2.0,2.0,68,0.00,,,0.00,Wunderground v.1.15,2013-03-15 00:07:00,
2013-03-14 20:12:00,60.2,49.6,30.15,NW,323,2.0,2.0,68,0.00,,,0.00,Wunderground v.1.15,2013-03-15 00:12:00,
2013-03-14 20:22:00,59.7,49.9,30.15,NNW,331,1.0,1.0,70,0.00,,,0.00,Wunderground v.1.15,2013-03-15 00:22:00,
2013-03-14 20:32:00,59.3,50.3,30.16,NNW,333,0.0,0.0,72,0.00,,,0.00,Wunderground v.1.15,2013-03-15 00:32:00,
2013-03-14 20:42:00,58.9,50.6,30.16,NNW,331,0.0,0.0,74,0.00,,,0.00,Wunderground v.1.15,2013-03-15 00:42:00,
2013-03-14 20:52:00,58.8,50.9,30.16,NNW,336,1.0,1.0,75,0.00,,,0.00,Wunderground v.1.15,2013-03-15 00:52:00,
2013-03-14 21:02:00,58.6,51.1,30.17,NNW,328,0.0,12.0,76,0.00,,,0.00,Wunderground v.1.15,2013-03-15 01:02:00,
2013-03-14 21:12:00,58.5,51.3,30.17,NNW,336,2.0,2.0,77,0.00,,,0.00,Wunderground v.1.15,2013-03-15 01:12:00,
2013-03-14 21:17:00,58.5,51.3,30.17,NNW,332,1.0,3.0,77,0.00,,,0.00,Wunderground v.1.15,2013-03-15 01:17:00,
2013-03-14 21:27:00,58.3,51.5,30.17,NNW,335,1.0,12.0,78,0.00,,,0.00,Wunderground v.1.15,2013-03-15 01:27:00,
2013-03-14 21:37:00,58.0,51.2,30.17,NNW,336,0.0,12.0,78,0.00,,,0.00,Wunderground v.1.15,2013-03-15 01:37:00,
2013-03-14 21:47:00,57.9,51.1,30.18,NNW,337,1.0,12.0,78,0.00,,,0.00,Wunderground v.1.15,2013-03-15 01:47:00,
2013-03-14 21:57:00,57.7,50.5,30.18,NNW,344,0.0,12.0,77,0.00,,,0.00,Wunderground v.1.15,2013-03-15 01:57:00,
2013-03-14 22:07:00,57.6,50.1,30.18,North,355,2.0,12.0,76,0.00,,,0.00,Wunderground v.1.15,2013-03-15 02:07:00,
2013-03-14 22:17:00,57.5,50.0,30.19,North,351,2.0,3.0,76,0.00,,,0.00,Wunderground v.1.15,2013-03-15 02:17:00,
2013-03-14 22:27:00,57.3,49.8,30.19,North,360,1.0,2.0,76,0.00,,,0.00,Wunderground v.1.15,2013-03-15 02:27:00,
2013-03-14 22:32:00,57.2,49.7,30.19,North,355,0.0,0.0,76,0.00,,,0.00,Wunderground v.1.15,2013-03-15 02:32:00,
2013-03-14 22:42:00,57.3,49.8,30.19,North,360,1.0,1.0,76,0.00,,,0.00,Wunderground v.1.15,2013-03-15 02:42:00,
2013-03-14 22:52:00,57.0,49.5,30.20,North,360,0.0,0.0,76,0.00,,,0.00,Wunderground v.1.15,2013-03-15 02:52:00,
2013-03-14 23:02:00,57.0,48.4,30.21,NNE,14,2.0,7.0,73,0.00,,,0.00,Wunderground v.1.15,2013-03-15 03:02:00,
2013-03-14 23:12:00,57.0,47.3,30.21,NNE,13,0.0,7.0,70,0.00,,,0.00,Wunderground v.1.15,2013-03-15 03:12:00,
2013-03-14 23:22:00,56.7,47.4,30.21,NNE,14,0.0,7.0,71,0.00,,,0.00,Wunderground v.1.15,2013-03-15 03:22:00,
2013-03-14 23:32:00,56.4,47.1,30.22,NNE,13,0.0,7.0,71,0.00,,,0.00,Wunderground v.1.15,2013-03-15 03:32:00,
2013-03-14 23:37:00,56.3,46.6,30.22,NNE,13,0.0,7.0,70,0.00,,,0.00,Wunderground v.1.15,2013-03-15 03:37:00,
2013-03-14 23:47:00,55.7,46.4,30.22,NNE,13,0.0,7.0,71,0.00,,,0.00,Wunderground v.1.15,2013-03-15 03:47:00,
2013-03-14 23:57:00,55.1,46.6,30.22,NE,34,0.0,7.0,73,0.00,,,0.00,Wunderground v.1.15,2013-03-15 03:57:00,